Wind_Speed
29 30 32 35 37 37 36 33 28 24 22 22 21 22 25 24 23 22 20 20 19 18 18 19 20 19 18 18 18 19 19 19 18 17 16 15 15 14 14 14 13 11 10 10 9 8 8 8 10 11 12 12 13 14 14 16 17 16 16 16 17 17 18 19 19 19 19 20 22 23 24 25 24 20 18 19 22 24 27 29 30 32 33 35 37
29 30 33 37 40 40 38 36 32 28 26 25 24 25 27 26 24 23 22 21 19 19 19 21 22 21 20 20 20 20 20 20 19 18 17 16 15 15 15 14 12 11 10 10 9 8 8 9 11 11 11 12 13 13 14 15 16 15 16 16 17 17 18 19 20 22 22 21 22 23 23 25 26 24 19 18 21 24 26 28 29 30 32 33 35
28 30 33 37 41 42 41 38 35 32 29 27 27 27 29 28 26 24 24 22 21 21 22 23 24 23 22 22 23 23 22 21 20 19 17 16 16 16 15 14 12 11 10 9 9 8 8 10 11 11 12 12 13 13 13 15 15 15 16 16 16 17 18 18 20 22 23 23 23 24 24 24 26 26 22 20 21 23 25 27 28 29 30 31 33
27 29 32 36 41 43 42 40 38 35 32 31 29 29 30 30 28 26 26 24 23 23 24 24 25 25 24 24 24 24 23 21 19 19 18 18 17 16 15 13 11 11 10 9 8 8 9 10 11 11 12 13 13 13 14 14 14 15 16 16 16 17 17 18 19 20 23 24 24 24 24 25 25 26 26 24 22 23 24 26 27 28 28 29 32
27 29 31 35 40 43 44 42 40 37 35 34 32 31 31 31 29 28 27 26 26 25 24 24 25 26 25 25 24 23 23 21 20 20 20 19 17 15 14 12 11 10 9 9 9 9 10 10 11 12 13 13 12 13 13 14 14 15 16 17 17 18 18 18 18 19 20 23 24 23 24 24 25 26 28 27 25 24 24 25 25 26 27 28 30
27 28 30 34 38 41 44 43 41 39 38 36 34 32 31 31 30 30 29 29 28 27 26 26 26 27 26 25 25 24 23 23 22 21 20 18 16 14 13 12 11 10 9 9 9 10 11 11 12 13 13 13 12 13 13 13 14 16 17 18 18 18 19 19 18 18 18 20 22 22 22 23 25 27 27 28 27 25 24 24 25 26 26 27 29
27 28 29 33 36 39 43 44 42 40 39 38 36 34 32 32 31 32 31 30 29 28 28 27 28 28 27 27 26 25 24 24 22 20 18 16 14 13 12 11 11 10 9 10 10 11 11 12 13 14 14 13 13 13 13 13 15 17 18 18 18 19 19 19 18 18 18 19 20 21 21 22 24 27 27 28 28 27 25 24 25 26 26 27 28
28 29 30 32 35 37 40 43 43 41 40 38 37 35 33 32 32 32 31 30 29 29 28 28 28 28 28 27 26 25 24 23 20 18 16 14 13 13 12 11 11 10 10 11 11 12 12 13 13 14 14 13 13 13 13 14 16 18 18 18 18 19 19 19 18 19 19 19 20 20 21 22 24 27 27 28 28 28 27 25 25 26 27 28 28
28 29 30 32 33 35 37 40 42 41 40 39 37 35 33 33 32 31 31 30 29 28 28 28 28 28 27 26 25 24 22 20 18 16 15 14 13 13 12 11 10 11 11 12 12 13 12 12 14 14 14 13 13 13 14 16 17 17 17 18 19 19 19 19 19 19 19 19 19 19 20 22 24 26 26 27 27 27 28 27 26 26 26 28 28
28 29 30 31 33 34 34 36 39 41 41 39 37 35 33 33 32 31 30 30 29 28 27 27 27 26 25 24 23 21 20 18 16 15 14 14 13 12 11 11 11 12 13 13 13 13 12 12 14 14 14 14 14 14 15 16 16 17 17 19 19 19 19 20 20 20 20 19 19 19 20 22 23 25 25 25 26 26 27 27 27 26 25 27 27
27 28 29 30 31 32 33 34 37 39 40 39 38 35 34 33 32 31 31 30 29 27 26 25 25 24 23 22 20 19 18 16 15 14 13 13 12 11 11 12 13 14 14 14 13 12 12 13 14 15 14 14 14 15 15 15 16 17 18 18 19 19 20 20 20 20 20 19 19 20 20 22 23 25 25 25 26 27 27 27 28 27 25 25 26
26 27 27 28 30 31 32 33 34 36 37 38 38 36 34 32 31 30 29 28 27 26 25 24 23 22 21 20 18 17 16 15 14 13 12 12 12 12 13 14 14 15 15 13 12 12 13 14 14 15 15 15 14 14 14 14 16 17 18 18 18 19 21 21 21 20 20 19 19 20 21 22 24 25 25 26 27 27 27 27 28 28 26 25 25
24 25 26 27 28 30 30 31 33 33 33 35 36 36 35 33 31 29 27 26 25 25 24 23 22 21 20 19 17 16 15 14 14 14 14 14 15 15 15 15 15 15 14 12 12 13 14 14 14 15 15 14 13 12 13 14 16 17 17 18 18 20 21 22 21 20 20 19 19 20 21 23 24 25 25 26 27 27 28 28 28 29 28 25 25
23 24 24 25 27 27 28 29 30 32 32 33 33 33 33 32 32 31 30 28 26 25 24 24 23 22 21 20 19 18 18 18 17 17 17 16 16 16 16 15 14 14 13 12 13 13 14 14 14 15 15 13 12 12 13 15 16 17 17 18 19 20 21 22 21 20 19 19 19 20 21 23 24 25 25 26 27 27 28 29 29 30 28 26 25
21 22 22 23 24 25 26 27 28 29 30 31 31 30 29 30 30 30 30 30 29 27 26 26 25 25 24 23 23 22 21 20 19 19 18 16 15 16 17 15 13 13 13 13 13 13 14 14 14 14 14 12 12 12 13 14 16 17 17 18 20 21 22 22 21 20 19 19 19 20 21 22 24 24 25 25 26 27 28 29 29 29 28 26 24
18 19 20 21 22 24 25 25 26 27 28 28 29 28 28 28 28 28 27 28 28 27 26 26 26 25 24 23 23 21 20 18 17 17 16 14 13 14 15 15 13 13 13 13 13 13 13 13 14 14 13 12 12 13 14 14 15 16 17 18 20 22 22 21 21 21 20 19 18 19 20 21 23 23 24 24 25 26 28 29 29 29 28 25 24
17 18 19 20 21 22 24 24 24 25 26 27 27 27 27 27 27 26 26 26 25 24 24 23 23 22 21 20 19 18 17 16 15 15 14 14 14 14 15 14 13 13 13 13 13 13 13 13 13 13 12 12 13 13 14 14 15 15 16 18 20 22 22 21 21 21 21 20 19 18 19 20 21 22 23 23 23 25 26 28 29 29 27 25 23
17 18 19 20 20 21 22 22 23 24 24 24 25 25 25 25 25 25 25 25 24 23 23 22 21 20 20 19 18 17 16 15 15 15 15 15 16 16 15 14 13 13 13 13 13 13 12 12 12 12 12 12 13 14 14 14 14 15 16 18 20 22 22 20 20 21 22 22 21 20 19 19 20 21 22 22 23 23 24 27 28 29 27 24 23
15 16 18 19 19 20 20 21 22 22 23 22 22 23 23 23 23 23 23 23 22 22 22 22 21 20 20 19 18 18 17 17 16 16 16 16 17 16 15 14 13 13 13 13 13 13 12 12 12 12 12 13 14 14 13 14 14 14 16 18 19 21 22 20 19 20 22 24 23 22 21 21 21 21 22 22 23 23 23 25 28 28 27 24 22
13 14 15 17 17 18 19 19 20 21 21 21 21 21 22 22 22 22 22 21 21 21 20 20 20 20 19 19 18 18 18 18 17 17 17 17 17 16 15 14 14 13 13 13 13 13 12 12 12 12 13 13 13 13 14 14 14 14 16 17 19 20 21 20 19 20 22 24 24 23 23 22 22 22 22 23 24 23 21 23 26 27 27 25 22
11 12 13 14 15 16 17 18 18 19 19 19 20 20 21 21 21 21 21 21 21 20 20 20 20 19 19 18 18 18 18 18 18 17 17 17 16 16 15 14 14 13 13 13 13 13 12 13 13 13 13 14 13 13 13 13 14 14 16 17 18 19 20 20 19 19 21 23 24 24 23 23 23 23 24 24 24 23 21 22 25 26 27 25 23
9 10 10 11 13 14 15 16 17 17 17 18 18 19 19 20 20 20 20 20 20 20 19 19 19 19 18 18 18 18 17 18 17 17 17 17 16 15 15 14 14 14 13 12 13 13 13 14 14 14 14 14 14 13 13 13 14 15 16 17 17 19 20 19 18 19 20 22 23 24 23 24 24 25 25 25 25 23 20 21 24 26 27 26 24
7 8 9 9 10 12 13 15 16 16 16 16 16 17 17 18 18 18 19 20 20 19 18 18 18 18 18 18 17 17 17 17 17 17 16 16 16 16 15 15 14 14 14 13 13 13 14 14 14 14 15 15 14 14 14 14 15 15 16 16 16 18 19 19 18 18 19 20 22 23 24 24 25 26 26 26 25 23 20 20 24 26 26 26 25
5 6 7 8 9 10 12 13 14 15 15 15 15 15 16 16 16 17 18 18 19 18 18 18 18 18 18 17 17 17 17 17 17 16 16 16 16 16 16 15 15 15 14 13 13 13 13 13 13 13 14 15 14 14 15 15 16 16 16 16 16 17 19 19 18 18 18 19 21 23 24 25 26 26 26 26 25 23 20 20 24 26 26 26 25
3 4 5 6 7 8 10 12 13 13 14 14 14 14 14 15 15 15 16 16 17 17 17 17 17 17 17 17 17 17 17 16 16 16 16 16 16 16 16 16 15 15 14 14 14 14 13 12 12 12 12 14 14 14 15 16 17 16 15 15 15 16 18 19 18 17 18 19 20 22 24 25 26 26 26 26 24 23 21 20 23 25 25 25 24
1 2 3 4 5 6 8 10 10 11 12 13 13 13 14 14 14 14 15 15 15 15 16 16 16 16 16 16 17 17 16 16 16 16 16 16 16 16 16 16 15 15 14 14 14 14 13 11 11 11 12 13 14 15 16 17 17 16 15 15 15 16 18 18 18 18 19 19 21 22 23 24 25 26 26 25 24 23 21 20 23 25 25 25 24
1 0 1 2 3 4 6 8 8 9 11 12 13 13 13 13 13 13 14 14 14 14 15 15 15 15 15 15 16 16 16 15 15 15 15 15 15 14 14 14 14 14 14 13 13 13 12 11 11 11 12 13 15 16 17 18 18 17 16 15 15 16 17 18 18 19 19 20 21 22 22 23 24 25 25 25 24 23 21 21 23 25 25 25 25
3 2 2 1 1 2 4 5 6 7 9 10 11 12 12 13 12 12 13 13 14 14 14 14 14 15 15 15 15 15 15 15 14 14 14 13 13 13 13 13 12 12 12 12 12 12 11 11 10 11 11 13 15 16 17 17 17 17 16 15 16 17 17 18 18 19 20 20 21 21 22 22 23 24 25 24 24 23 21 21 23 25 25 26 26
4 4 4 3 3 2 2 3 4 5 6 8 10 11 11 12 11 11 12 12 13 13 14 14 14 14 14 15 15 15 14 14 14 13 13 13 13 13 13 12 12 11 11 11 11 11 11 10 10 10 11 12 14 15 16 16 17 17 16 16 17 18 18 18 19 19 20 21 21 22 22 23 23 24 24 24 23 23 23 23 24 26 26 26 26
6 6 6 5 5 4 3 2 2 3 5 6 8 9 10 10 11 10 10 11 12 12 13 13 13 13 14 15 15 15 15 15 15 14 14 14 14 14 14 13 13 12 12 12 12 11 11 11 10 10 10 11 13 14 15 16 16 17 18 17 17 19 19 19 19 20 21 21 22 22 23 24 25 25 26 26 26 26 26 27 27 28 28 28 28
9 8 7 7 7 6 5 4 3 3 3 4 6 7 8 9 10 10 10 10 10 11 12 12 13 13 14 14 15 15 15 16 16 15 15 15 15 14 14 14 14 14 13 13 13 12 12 12 11 11 11 12 13 13 14 16 16 18 19 19 19 19 19 20 20 21 21 23 24 25 26 28 29 31 31 32 32 32 32 32 32 32 32 31 31
12 11 9 9 9 9 8 6 5 4 4 4 5 6 7 8 9 9 9 9 10 10 11 12 12 13 14 15 15 15 16 16 16 16 16 16 15 15 15 15 15 15 15 14 14 13 13 12 12 11 12 12 13 13 14 15 16 17 19 20 19 19 19 20 21 23 24 26 28 30 32 33 35 36 36 37 37 37 37 37 37 36 36 35 35
13 13 12 11 10 10 10 9 8 7 6 6 6 6 7 8 8 9 9 9 9 10 11 11 12 13 14 15 16 16 16 16 16 16 16 16 15 15 15 16 16 16 16 15 15 14 14 14 13 12 12 12 13 12 13 13 14 15 17 19 20 22 23 25 27 28 30 31 33 34 35 36 37 38 39 39 40 40 41 41 41 41 41 40 40
16 14 14 13 13 12 12 12 11 10 9 8 8 8 8 8 9 9 9 9 9 10 10 11 12 13 14 15 16 16 16 17 16 16 15 15 15 15 15 15 16 16 16 16 16 16 16 15 15 14 13 12 12 11 11 13 14 15 17 19 22 25 28 31 33 34 34 35 35 35 36 36 37 38 39 39 40 41 42 42 43 43 44 44 45
18 17 15 15 14 14 13 13 13 12 11 10 10 9 9 9 9 9 9 9 9 9 10 11 12 13 13 14 15 15 16 16 16 16 15 15 15 14 14 15 15 16 17 17 18 17 16 16 15 14 13 12 12 12 13 14 16 18 19 22 25 28 30 32 34 35 35 35 35 36 36 36 37 37 38 38 39 40 40 41 41 42 43 44 45
19 19 18 17 16 15 15 15 15 15 14 13 12 11 11 10 10 9 8 8 8 8 9 9 10 11 12 13 13 14 14 15 15 15 15 14 14 13 13 14 15 16 17 18 18 17 17 16 15 14 14 14 14 15 16 17 19 21 23 25 27 29 30 32 33 34 34 34 34 35 35 35 35 36 36 36 37 37 38 38 39 39 40 41 42
20 20 20 20 18 17 17 17 17 17 16 15 14 13 12 12 11 10 9 8 7 7 8 8 8 9 10 11 11 12 12 13 13 13 13 12 12 12 11 11 13 14 16 17 17 17 17 16 16 16 17 17 18 19 20 21 22 24 25 26 28 29 30 31 31 32 32 32 32 32 32 33 33 33 34 34 34 35 35 36 36 36 37 38 38
20 20 20 21 21 20 20 19 19 19 18 17 16 15 14 13 13 11 10 8 7 7 7 7 7 7 8 9 9 9 10 10 11 11 11 10 10 10 9 9 10 12 14 15 16 16 16 17 17 18 19 20 20 21 23 23 23 24 24 25 27 28 28 28 29 29 29 29 29 29 29 29 29 29 30 30 31 31 32 32 32 33 33 34 35
19 19 20 21 22 23 22 21 21 21 20 19 18 17 17 15 14 13 11 9 7 7 6 6 6 6 6 7 7 8 8 8 8 9 9 8 8 8 7 7 8 10 11 12 13 13 14 15 16 17 18 19 20 21 22 22 22 23 23 23 25 26 26 25 25 26 26 25 25 25 25 25 25 25 25 26 26 26 26 27 27 28 29 30 30
20 18 19 21 23 24 24 23 22 22 21 21 19 18 18 17 16 15 13 11 9 7 6 5 5 4 5 5 5 5 6 6 6 7 7 6 6 6 5 5 6 8 9 9 10 11 11 12 13 14 15 16 17 18 19 20 20 20 21 21 21 22 22 22 22 22 21 21 21 21 21 21 21 21 21 21 21 21 22 22 23 24 25 26 26
21 20 19 20 22 24 25 24 23 23 23 22 21 19 19 19 18 17 15 13 11 9 7 5 4 3 3 3 3 3 3 4 4 4 5 5 4 4 4 3 4 5 7 7 8 9 9 9 10 11 12 13 14 13 14 15 16 16 17 17 17 18 18 18 18 17 17 17 17 17 17 17 17 17 17 17 17 17 18 18 19 20 21 22 22
22 22 21 20 20 22 24 25 25 24 24 24 23 21 20 19 19 18 17 16 14 11 9 6 4 3 2 2 3 3 2 2 2 2 3 3 3 2 2 2 2 3 4 5 6 7 7 7 7 8 8 9 10 9 10 10 11 12 12 13 13 13 13 13 14 13 13 13 12 12 12 12 12 12 12 13 13 13 14 14 15 16 17 17 18
24 23 22 21 21 21 23 25 26 26 26 25 25 24 22 21 20 19 19 18 16 14 11 9 6 4 3 3 3 4 4 3 3 2 2 1 1 1 1 1 2 3 3 4 5 5 5 5 5 5 5 5 6 6 6 7 7 8 9 9 9 9 9 9 9 9 9 8 8 8 7 7 8 8 8 8 8 9 10 10 11 12 13 13 14
26 24 24 24 23 22 23 25 26 26 26 26 26 26 25 23 21 21 21 20 19 17 15 12 9 7 5 4 4 5 5 6 6 5 4 3 2 1 1 2 2 3 4 4 5 6 5 5 5 4 4 3 3 3 3 4 4 4 5 5 5 5 5 5 5 5 4 4 4 4 3 3 2 3 3 3 4 5 6 6 7 8 9 10 11
31 29 29 29 27 24 23 24 26 26 26 26 26 27 26 25 23 22 22 22 21 20 18 16 13 10 8 6 5 6 6 7 8 8 7 6 5 4 3 4 4 4 5 6 6 7 7 7 7 6 6 5 5 4 4 3 3 3 3 3 3 2 2 2 2 2 2 2 2 2 1 1 2 2 2 2 3 3 4 5 6 7 8 9 11
37 35 34 33 31 28 25 25 25 26 25 24 25 26 26 26 24 24 24 23 23 23 22 20 18 15 13 10 8 7 7 8 9 10 10 10 8 7 6 6 6 6 7 8 8 8 9 9 9 8 9 9 8 8 7 7 6 6 5 5 4 4 4 4 5 5 5 5 6 6 6 6 6 6 7 7 8 8 8 8 9 10 11 12 12
40 38 37 37 34 31 28 26 25 25 24 22 23 23 24 25 26 26 25 25 25 25 24 24 22 20 17 15 12 10 9 10 10 11 12 13 12 10 9 9 9 8 8 9 10 10 10 10 10 10 10 11 11 11 11 10 10 9 8 7 6 6 7 7 7 6 6 6 6 7 7 7 8 8 9 11 12 13 13 13 13 13 14 14 15
42 41 40 39 37 34 31 29 26 24 22 21 21 22 23 25 26 27 28 28 27 26 25 24 23 22 20 18 16 13 12 11 12 12 13 14 15 14 13 12 12 11 10 11 12 11 11 11 11 11 11 12 13 14 14 14 13 12 11 9 8 8 9 9 10 11 10 9 9 10 10 9 8 8 9 10 12 14 15 15 15 15 15 15 16
44 44 43 42 40 36 34 33 30 26 23 21 22 23 24 25 26 28 29 29 29 28 25 23 22 20 19 17 16 15 14 13 13 14 16 17 17 17 16 15 15 13 12 13 14 13 11 11 11 11 12 12 13 14 15 15 15 15 13 12 11 11 11 11 11 13 14 12 11 11 12 11 10 10 9 10 10 10 12 14 15 15 15 15 16
45 46 46 45 43 40 38 36 33 30 27 24 24 24 25 26 27 28 29 30 29 27 24 22 20 19 18 17 16 15 14 14 14 16 18 19 19 19 18 18 17 15 12 14 16 15 12 11 11 10 11 12 12 13 13 14 15 15 13 12 12 11 10 9 9 10 11 11 8 8 10 11 11 10 9 9 10 9 10 11 13 13 13 13 14
48 48 47 46 45 43 41 38 36 33 30 29 28 28 28 27 27 27 29 29 28 25 22 20 19 19 19 18 18 17 15 14 15 17 19 21 22 20 19 20 19 15 13 16 19 17 14 13 11 9 10 10 10 10 11 12 12 13 12 11 10 10 9 8 7 7 9 10 9 8 9 11 13 12 10 8 8 9 10 11 12 13 13 13 13
Wind_Direction
37 36 34 33 33 34 34 36 42 52 63 72 85 95 98 97 95 96 98 100 103 102 101 103 105 107 110 112 115 118 121 124 125 123 116 112 109 109 114 116 115 110 102 92 82 73 66 56 48 45 45 48 46 43 44 45 43 41 39 38 37 34 32 31 29 28 27 26 26 26 27 26 22 18 16 18 19 20 21 21 21 21 20 19 18
39 38 36 37 37 37 37 39 44 53 64 74 85 94 96 94 93 93 95 96 95 93 95 98 100 102 104 107 111 115 118 120 120 118 115 113 112 115 119 119 116 109 100 91 83 74 65 54 48 47 49 50 45 42 44 43 39 36 36 35 33 31 31 30 30 30 28 26 25 25 25 25 24 23 20 18 18 19 20 20 21 21 20 18 17
40 41 40 40 40 40 40 42 46 54 64 74 84 92 95 94 93 92 92 92 87 84 87 91 96 100 102 105 109 113 115 117 116 116 115 115 118 122 123 120 116 108 100 92 84 75 63 54 50 51 53 50 44 43 43 38 32 29 31 31 28 25 25 26 27 29 29 28 26 26 26 25 24 26 28 24 20 20 19 20 20 21 20 18 17
41 42 42 42 42 42 43 45 48 55 63 72 80 87 91 91 89 89 89 86 81 79 81 87 93 99 102 105 108 111 113 115 116 117 118 120 123 124 122 118 113 106 99 91 83 72 61 55 54 55 55 49 44 42 39 34 27 26 30 30 26 23 20 21 22 25 27 27 26 25 26 25 24 29 32 29 24 21 19 19 21 22 21 18 17
43 44 45 44 44 45 46 48 51 56 64 69 75 81 85 86 87 88 87 82 78 78 81 86 92 97 100 104 107 111 114 116 118 120 121 123 123 122 119 115 109 102 94 87 78 67 60 58 59 59 54 48 43 40 35 29 24 26 31 31 28 25 23 23 21 20 23 25 23 24 26 25 26 30 33 31 27 22 19 19 22 22 22 20 18
45 46 47 46 47 48 48 50 53 58 64 70 73 77 80 84 87 88 84 79 77 79 82 86 91 95 100 104 107 111 114 116 119 120 120 120 119 117 113 107 102 96 88 80 70 62 60 62 64 59 52 45 39 36 32 25 22 28 32 32 29 27 27 27 25 20 20 23 21 23 26 25 27 31 33 32 29 25 22 22 23 23 23 21 19
48 48 49 49 50 51 51 52 55 58 64 70 74 76 79 82 85 85 81 78 77 79 81 85 90 95 99 103 107 110 113 115 116 117 115 114 113 108 102 97 92 87 80 70 63 62 64 66 64 56 48 41 36 33 28 23 24 31 33 32 30 29 27 25 26 23 22 22 19 23 27 27 30 32 32 33 31 27 23 23 23 22 22 20 20
49 49 51 52 53 53 53 53 56 59 63 68 72 75 78 81 82 81 79 77 77 78 80 84 89 93 97 101 104 107 108 110 111 109 108 106 102 96 91 88 85 80 70 64 63 66 68 67 61 51 43 37 35 32 28 27 30 34 34 33 31 28 25 23 23 23 23 20 18 24 28 28 32 33 31 31 31 28 23 21 21 21 21 20 20
49 50 52 54 55 55 55 55 57 60 63 66 70 73 77 81 81 80 79 78 77 77 79 83 87 91 94 97 100 102 103 103 103 100 97 94 89 87 86 84 79 71 66 66 68 71 70 64 55 47 40 38 38 36 34 33 34 35 35 34 31 27 24 23 24 23 22 19 20 27 29 30 33 33 30 28 29 29 24 21 18 18 18 19 19
50 51 53 55 55 55 56 58 59 61 63 65 68 72 76 80 82 82 81 80 79 79 79 82 85 89 92 95 97 97 97 96 93 89 87 85 84 84 82 77 71 69 70 71 72 72 66 55 49 46 45 45 44 41 39 36 35 36 36 34 31 26 23 23 25 24 23 22 25 30 31 32 34 32 29 26 26 28 26 22 18 16 15 17 19
51 52 53 55 54 55 57 59 62 63 64 66 68 71 75 78 81 83 83 83 83 82 83 84 86 89 92 94 95 94 92 89 86 84 83 82 81 78 74 72 72 74 75 75 73 67 54 47 48 52 53 51 48 44 40 38 37 37 36 34 29 25 24 24 26 27 28 27 30 33 33 33 33 31 28 26 25 25 26 23 20 17 14 16 19
53 53 54 53 52 56 58 60 64 67 67 67 69 71 73 76 79 81 84 85 86 87 88 90 91 93 94 94 94 92 90 87 84 81 80 79 77 76 76 76 77 77 77 76 70 58 47 47 54 59 57 52 48 44 41 39 38 36 35 32 28 25 25 26 28 31 33 33 34 35 34 34 33 31 29 27 24 24 25 24 21 18 16 17 20
53 53 54 53 52 55 58 60 63 66 68 68 69 71 73 75 77 79 81 85 88 88 89 91 93 95 95 95 93 91 89 86 84 83 81 80 81 81 80 80 79 79 78 71 61 54 51 54 59 60 57 51 46 43 41 40 37 35 32 30 26 26 27 28 29 33 36 38 38 38 36 35 34 32 32 29 26 25 26 26 23 21 18 18 20
53 53 53 53 53 54 55 57 61 64 66 68 70 71 73 74 75 77 78 81 85 87 87 87 89 92 93 93 92 91 90 88 87 86 85 86 86 84 80 79 79 78 74 61 55 57 60 59 59 57 54 47 43 41 40 39 36 33 30 27 26 27 28 30 32 33 36 40 40 40 38 36 35 34 34 32 28 26 27 27 26 23 20 19 20
55 56 56 56 56 55 55 56 58 61 63 65 68 71 72 73 74 75 76 77 80 83 83 83 85 87 89 90 90 90 89 89 88 88 86 85 85 83 80 77 74 71 67 60 56 59 61 60 57 54 49 43 39 39 39 36 34 32 29 26 26 27 29 31 34 34 35 39 41 41 40 37 35 35 34 33 30 27 27 29 28 26 23 21 20
56 58 59 58 57 57 57 57 57 59 60 62 65 68 70 71 73 74 75 76 77 78 79 80 81 82 84 85 86 86 86 86 85 84 84 81 77 77 79 78 72 67 64 63 61 58 57 57 54 51 46 41 38 38 37 33 31 30 28 26 26 29 29 31 35 37 35 36 38 39 39 37 36 34 33 33 31 28 26 27 29 28 26 24 21
55 56 57 57 58 59 59 59 58 58 59 61 63 65 66 68 70 72 74 75 76 76 76 76 77 79 80 80 80 81 81 80 78 77 78 77 74 73 76 77 71 66 62 60 59 56 52 52 51 48 44 41 40 38 35 31 28 27 26 25 26 29 30 31 35 38 37 35 34 34 34 34 34 33 30 29 30 29 25 24 26 28 28 27 24
52 51 52 55 58 60 60 59 59 60 60 61 62 64 66 67 68 69 71 72 73 74 75 74 74 74 75 76 77 76 76 75 75 75 74 73 73 73 73 71 67 63 58 54 54 52 48 46 47 46 44 41 40 38 35 30 25 24 24 24 27 29 29 30 34 37 37 34 33 31 29 29 30 30 28 25 26 28 27 22 23 26 27 28 28
51 49 50 53 57 59 60 60 60 61 61 62 63 64 66 67 68 69 69 70 71 72 73 73 72 72 72 72 72 73 72 70 70 71 71 70 70 70 68 66 63 61 57 52 49 47 44 44 46 46 41 38 36 36 32 28 24 22 22 23 26 29 28 29 32 35 36 34 32 31 30 28 27 27 26 22 21 25 29 25 21 23 24 28 32
55 51 49 52 55 57 59 59 60 61 62 64 65 66 66 67 68 68 68 69 69 69 70 71 70 70 69 68 68 68 69 68 66 65 66 66 67 66 64 61 60 58 55 51 47 44 41 42 46 42 35 30 29 30 27 24 21 21 21 22 26 28 27 27 30 34 34 33 31 30 30 28 26 24 23 22 20 21 29 30 23 20 21 26 33
61 57 52 52 53 55 57 58 59 60 62 64 65 66 67 68 68 68 68 67 66 66 67 68 68 66 66 65 65 65 65 66 65 64 64 64 64 64 62 58 55 53 51 48 45 42 39 38 39 36 29 23 22 23 22 19 19 22 22 22 26 28 26 26 29 32 33 31 29 28 29 27 25 23 22 22 20 21 28 33 27 20 20 25 33
70 65 59 55 53 54 56 57 58 60 62 62 63 64 66 67 69 69 69 69 67 65 64 64 65 64 64 64 64 63 62 63 63 63 62 62 61 61 59 57 53 49 47 44 41 38 36 34 33 30 25 22 21 22 21 20 21 23 23 23 27 27 25 25 28 31 31 29 27 27 28 26 25 23 22 21 21 23 29 33 29 23 20 24 31
76 72 66 59 54 53 55 55 56 57 60 60 60 61 64 66 68 70 71 71 69 67 65 64 63 63 62 61 62 62 62 61 61 60 60 60 59 57 55 54 51 49 47 43 38 35 33 34 33 30 26 25 26 26 25 23 22 22 24 26 27 26 23 23 26 29 30 28 25 26 27 26 25 24 22 22 22 25 33 33 28 24 22 24 29
79 73 70 63 55 52 53 53 53 54 56 57 58 58 61 63 66 70 72 73 72 69 66 66 65 64 63 60 60 61 61 61 61 60 59 58 57 55 53 51 50 48 47 43 39 35 34 35 34 31 28 27 26 28 28 26 22 23 26 27 26 22 19 20 23 25 26 25 24 24 26 26 25 24 24 24 23 27 38 35 27 25 24 24 28
80 76 72 66 59 53 51 51 51 50 49 52 55 56 58 61 63 67 70 73 74 72 69 69 67 65 65 63 61 60 59 60 61 60 59 58 56 54 52 51 50 49 47 44 41 38 37 38 35 32 28 23 22 24 24 23 22 24 27 27 23 18 15 15 18 20 22 23 23 24 25 25 25 25 26 28 28 31 39 36 27 26 26 26 29
67 77 75 67 60 52 50 50 49 46 44 46 49 52 56 59 60 62 65 69 72 71 70 70 69 67 66 64 63 61 58 57 59 58 56 56 54 52 51 51 50 50 48 46 43 41 39 37 33 30 24 19 19 18 17 20 22 24 24 22 18 13 12 13 15 19 21 22 24 26 27 26 26 28 31 32 32 34 39 35 28 27 28 29 32
297 329 69 62 55 49 50 50 47 41 40 41 43 47 53 56 58 60 61 65 67 67 68 67 67 68 67 65 64 62 59 56 55 54 52 50 48 46 47 49 48 46 45 43 40 38 37 33 29 26 19 15 14 15 16 20 22 21 19 16 14 12 13 15 16 20 24 25 28 30 31 31 31 32 34 36 36 37 39 35 29 29 31 32 35
273 271 275 300 358 31 44 48 45 37 35 37 39 42 47 52 55 57 60 63 63 64 65 64 62 64 66 65 64 63 62 58 54 52 50 46 44 43 44 44 43 40 36 35 34 33 33 32 27 22 18 14 14 15 18 21 22 22 19 14 14 17 19 21 22 25 29 32 35 37 37 37 36 37 38 38 39 39 38 35 32 33 35 36 39
265 265 265 270 284 315 11 36 38 31 27 31 35 37 42 47 49 52 57 61 62 62 63 62 61 62 63 64 63 62 62 60 57 53 50 47 46 45 44 41 39 36 33 33 33 34 35 36 32 26 22 19 18 19 21 23 24 26 28 24 21 25 29 30 30 32 37 40 42 42 41 41 40 40 41 41 41 41 41 39 37 37 39 41 42
269 265 264 265 270 281 297 333 6 13 15 19 25 28 34 40 43 46 51 57 59 60 61 62 61 61 61 62 61 60 60 60 59 57 54 52 50 50 48 44 42 42 42 41 41 42 43 42 40 37 32 29 27 26 27 29 30 30 35 36 32 32 35 36 38 42 45 46 45 45 45 45 45 45 46 46 46 47 47 46 45 45 45 46 46
277 271 265 264 266 271 280 292 307 328 346 358 8 14 19 28 36 39 44 50 54 56 57 58 58 59 60 60 60 60 60 60 59 58 58 56 54 54 54 52 50 51 53 52 51 51 51 49 48 46 43 40 36 35 34 34 34 33 37 41 41 40 40 43 46 50 52 51 51 52 52 51 52 52 52 53 53 54 55 55 55 54 54 54 54
282 278 273 268 267 269 274 280 286 296 312 326 340 353 360 10 23 31 36 41 46 50 53 54 54 55 56 57 57 57 58 59 59 59 59 59 57 57 57 57 56 57 58 60 60 59 59 57 55 52 49 46 43 41 38 36 35 35 39 45 50 52 54 56 58 59 59 59 59 60 60 60 60 61 62 62 63 64 65 66 66 66 66 65 64
281 282 281 275 269 268 271 276 280 284 295 306 317 329 339 350 5 19 27 31 36 42 46 50 52 52 53 54 55 55 54 56 57 57 58 58 56 55 56 58 59 59 60 62 64 65 66 65 63 61 57 54 51 46 43 41 40 42 47 53 60 66 70 70 70 70 69 69 69 69 70 70 71 72 73 73 74 74 75 75 75 75 75 74 73
276 279 280 278 272 268 268 271 275 279 285 293 302 312 322 333 347 5 17 21 25 31 37 43 48 50 52 52 53 53 52 52 52 53 54 54 53 54 55 56 58 59 60 62 64 65 68 70 70 70 68 65 62 56 54 54 56 60 65 68 74 78 80 81 80 79 79 78 78 79 79 78 79 80 81 81 81 82 81 81 81 80 80 79 78
269 268 270 272 271 267 265 265 269 273 278 283 291 299 308 318 330 346 3 12 17 22 28 35 41 47 51 52 52 52 51 50 50 49 49 49 50 53 54 55 58 58 60 62 64 66 69 72 74 76 77 75 73 70 69 70 74 79 82 84 86 87 88 89 89 88 88 87 87 87 86 86 86 86 87 86 86 86 85 85 84 83 82 81 80
265 261 258 260 261 261 261 260 262 266 271 275 281 287 295 304 315 327 346 2 11 16 22 28 34 41 49 52 53 53 53 52 50 48 46 46 47 50 52 56 59 59 60 62 64 68 73 77 81 84 85 85 84 83 83 84 88 91 92 93 94 94 94 95 95 95 95 94 93 93 92 92 91 91 90 89 89 88 87 86 85 84 82 81 80
268 263 257 253 251 250 252 254 257 260 264 269 273 278 285 292 301 312 329 349 4 11 16 23 29 35 45 51 53 54 55 56 55 53 51 48 48 48 50 55 59 60 60 62 64 68 73 77 82 88 90 90 91 92 93 94 95 96 97 99 100 100 100 100 101 100 99 98 97 96 95 94 93 92 91 89 88 87 85 84 83 82 81 80 79
273 270 266 259 251 245 244 248 252 255 258 264 269 274 279 285 292 301 314 332 351 4 10 17 22 26 35 46 53 55 56 57 58 58 58 56 55 54 53 58 61 62 64 66 66 67 70 72 77 86 91 92 95 98 99 99 100 100 101 104 106 106 105 104 104 104 103 100 97 96 95 94 92 91 89 87 86 84 82 81 79 78 77 77 77
271 271 269 266 259 251 246 246 249 252 255 260 266 271 276 281 287 295 304 317 335 351 1 8 14 17 22 33 47 54 55 57 59 60 62 62 62 61 61 64 69 71 72 74 74 72 71 73 78 86 91 93 96 101 104 103 104 105 107 108 110 110 108 107 107 106 105 101 98 95 93 91 90 89 87 85 83 81 79 77 75 73 73 72 72
270 271 267 264 262 258 255 252 252 255 257 260 263 268 274 279 284 290 297 305 316 332 345 353 3 9 10 14 28 44 52 54 57 60 65 67 66 66 68 72 80 83 82 84 85 81 79 80 83 88 91 94 97 102 105 107 107 109 112 113 113 113 111 109 109 108 106 103 100 97 94 91 89 86 84 82 79 77 74 72 69 68 68 67 66
267 269 265 260 259 260 260 261 261 263 263 264 265 268 272 277 281 285 291 295 301 311 322 331 342 352 354 357 6 19 37 47 51 58 64 69 73 75 77 83 91 97 97 100 100 96 91 91 93 95 96 98 101 102 104 108 110 112 115 117 118 118 117 114 112 110 109 106 102 99 95 92 89 85 82 78 74 72 70 66 62 60 59 60 59
262 263 265 261 258 258 259 262 264 267 269 269 269 270 272 275 278 281 285 288 291 295 305 314 321 323 321 322 328 335 350 6 22 44 56 68 76 83 93 110 116 119 116 120 121 117 112 110 110 107 106 106 107 107 106 108 113 116 118 121 122 122 123 121 117 113 112 111 108 102 97 93 90 87 81 74 70 68 66 61 56 52 50 50 51
257 257 261 261 258 255 255 257 259 262 265 268 270 271 272 274 276 279 281 284 288 291 297 306 314 316 310 303 300 306 311 316 320 330 345 20 80 105 136 163 163 163 153 148 148 144 136 137 139 133 125 119 119 120 120 120 123 124 126 128 128 127 128 129 128 123 119 117 115 111 105 97 92 89 83 73 65 61 58 54 49 44 42 41 41
255 254 259 261 259 255 252 253 254 256 258 260 264 268 271 274 276 278 279 281 285 290 295 302 310 313 307 294 286 289 293 297 300 303 302 299 286 251 223 224 216 203 196 184 178 175 171 168 170 171 173 168 157 153 148 143 144 144 144 143 141 141 141 144 147 143 136 134 128 124 122 116 104 89 76 64 53 44 38 35 31 28 27 25 24
253 256 261 263 263 261 257 254 254 256 256 256 258 261 265 269 272 275 278 281 284 287 290 295 301 307 306 296 280 270 274 281 287 291 290 288 282 274 262 250 242 235 230 222 212 204 198 194 195 196 198 201 204 206 211 211 209 206 201 195 194 196 199 196 202 208 214 221 229 233 231 227 245 271 292 306 323 330 338 346 352 354 355 358 359
251 255 259 261 263 263 260 257 256 258 259 257 257 259 262 264 267 269 272 276 279 282 284 287 291 295 298 296 286 270 262 263 270 278 283 282 278 272 268 264 260 255 252 247 239 230 220 213 211 208 207 209 212 215 220 229 236 239 243 245 250 258 267 270 270 269 270 273 275 276 276 274 273 275 280 287 294 299 304 311 319 325 330 333 337
248 252 254 256 259 261 260 258 257 261 265 265 262 261 261 263 264 265 266 267 269 271 274 276 279 282 286 288 287 278 266 257 257 263 270 275 275 269 262 259 258 257 260 260 255 246 238 233 229 223 218 217 217 218 221 228 234 240 246 252 259 268 275 278 279 277 273 273 281 287 287 282 279 279 280 283 289 293 297 300 303 305 309 313 318
247 250 251 252 253 256 258 259 259 262 268 273 270 265 262 260 261 263 264 264 264 265 268 269 271 272 273 275 277 275 268 258 251 252 255 261 264 264 259 254 249 248 252 259 261 256 251 248 244 239 234 229 224 223 225 227 232 238 244 247 251 259 267 272 275 278 277 276 279 286 288 287 284 282 282 281 281 284 288 292 295 295 296 299 303
247 249 249 248 249 253 256 257 258 260 265 272 274 270 265 261 260 262 264 265 265 265 268 271 272 272 270 270 270 269 265 259 252 250 250 251 253 255 255 252 248 244 246 255 261 261 258 257 254 249 247 241 236 231 230 231 233 237 242 248 252 256 264 271 277 282 286 288 286 284 286 289 288 287 287 286 281 276 277 283 288 291 293 294 296
246 248 247 246 248 251 254 255 255 256 259 264 269 268 265 262 261 263 266 268 269 268 269 272 275 277 277 276 275 272 268 263 258 256 254 254 253 251 251 252 250 244 242 251 258 260 263 265 263 259 256 252 247 244 241 240 240 241 244 251 259 262 267 275 281 287 294 302 305 297 296 299 301 301 299 296 291 287 285 288 293 298 302 303 303
244 245 245 245 246 249 251 253 252 252 254 257 261 263 262 261 261 262 265 268 271 273 274 275 275 275 275 274 273 272 271 266 262 261 261 261 261 258 253 252 254 250 243 248 254 256 258 260 262 263 262 261 260 258 253 251 251 250 250 256 265 271 273 278 284 291 298 305 308 307 306 307 310 316 327 328 316 310 310 310 312 316 319 318 318
Height
10978 10976 10974 10971 10967 10963 10959 10956 10953 10951 10949 10949 10948 10948 10948 10949 10951 10952 10953 10954 10955 10956 10956 10955 10955 10956 10958 10959 10961 10962 10964 10966 10968 10969 10970 10970 10970 10971 10971 10972 10972 10973 10973 10973 10973 10973 10972 10972 10971 10970 10970 10970 10969 10968 10967 10966 10964 10962 10960 10958 10957 10955 10953 10952 10950 10948 10946 10944 10941 10939 10936 10934 10931 10929 10926 10924 10922 10919 10917 10914 10911 10908 10905 10902 10899
10980 10978 10976 10973 10969 10965 10961 10957 10954 10952 10950 10950 10950 10950 10950 10951 10952 10954 10955 10956 10958 10958 10957 10957 10956 10958 10960 10961 10963 10964 10966 10968 10969 10970 10971 10971 10972 10972 10973 10973 10974 10974 10975 10975 10974 10974 10973 10973 10972 10972 10971 10971 10970 10969 10968 10967 10965 10964 10962 10960 10958 10956 10954 10953 10951 10949 10947 10944 10942 10939 10937 10935 10932 10929 10927 10925 10922 10920 10917 10915 10912 10909 10906 10903 10900
10983 10980 10978 10976 10972 10968 10963 10960 10956 10954 10953 10952 10952 10952 10952 10953 10955 10956 10957 10959 10960 10960 10959 10958 10958 10960 10961 10963 10965 10966 10968 10970 10971 10971 10972 10972 10973 10973 10974 10974 10975 10976 10976 10976 10975 10975 10974 10974 10974 10973 10973 10972 10971 10971 10969 10968 10967 10965 10963 10961 10959 10957 10955 10954 10952 10950 10948 10945 10943 10940 10938 10935 10933 10930 10928 10925 10923 10920 10918 10915 10913 10910 10907 10904 10901
10985 10983 10981 10978 10975 10971 10967 10963 10960 10957 10956 10955 10955 10955 10956 10956 10957 10959 10960 10961 10962 10961 10961 10961 10961 10962 10964 10965 10966 10968 10970 10971 10972 10973 10973 10974 10974 10975 10976 10976 10977 10977 10977 10977 10976 10976 10976 10975 10975 10975 10974 10973 10973 10972 10970 10969 10967 10965 10963 10962 10960 10958 10956 10954 10952 10950 10948 10946 10944 10941 10939 10936 10934 10931 10928 10926 10923 10921 10918 10916 10913 10911 10908 10905 10902
10988 10986 10984 10981 10978 10974 10970 10967 10964 10961 10959 10958 10958 10959 10959 10960 10961 10962 10963 10963 10964 10964 10964 10964 10964 10964 10965 10967 10968 10970 10971 10972 10974 10974 10975 10976 10976 10977 10977 10978 10978 10979 10978 10978 10978 10977 10977 10977 10976 10976 10975 10975 10974 10973 10971 10970 10968 10966 10964 10963 10961 10959 10957 10955 10953 10951 10949 10947 10945 10942 10940 10937 10935 10932 10929 10926 10924 10922 10919 10917 10914 10912 10909 10907 10904
10991 10989 10987 10984 10981 10978 10975 10971 10968 10966 10964 10962 10962 10963 10964 10965 10965 10966 10966 10966 10966 10966 10966 10967 10967 10967 10968 10969 10970 10972 10973 10974 10975 10977 10977 10978 10979 10979 10980 10980 10980 10980 10980 10980 10979 10979 10979 10978 10978 10978 10977 10976 10975 10974 10972 10971 10969 10967 10965 10963 10962 10960 10958 10956 10954 10952 10950 10948 10946 10943 10941 10939 10936 10933 10930 10927 10925 10923 10921 10918 10916 10913 10911 10908 10905
10994 10992 10990 10987 10984 10982 10979 10975 10973 10971 10968 10967 10967 10967 10968 10969 10969 10968 10967 10968 10969 10969 10969 10970 10970 10970 10971 10972 10973 10975 10976 10977 10978 10979 10980 10981 10981 10982 10982 10982 10982 10982 10982 10981 10981 10981 10980 10980 10979 10979 10978 10977 10976 10975 10973 10972 10970 10968 10966 10964 10963 10961 10959 10957 10955 10953 10951 10949 10947 10945 10942 10940 10937 10934 10931 10929 10926 10924 10922 10920 10917 10914 10912 10909 10907
10997 10995 10993 10990 10987 10985 10983 10980 10978 10975 10973 10971 10970 10971 10971 10971 10971 10970 10970 10971 10972 10972 10973 10973 10973 10973 10974 10975 10976 10978 10979 10980 10981 10982 10983 10983 10984 10984 10984 10984 10984 10983 10983 10983 10983 10982 10982 10981 10981 10980 10979 10978 10977 10976 10974 10973 10971 10969 10967 10965 10964 10961 10960 10958 10956 10954 10952 10950 10948 10945 10943 10941 10938 10935 10933 10930 10928 10925 10923 10921 10918 10915 10913 10910 10908
11000 10998 10995 10993 10991 10989 10987 10985 10982 10980 10977 10975 10974 10974 10974 10974 10973 10973 10973 10974 10975 10976 10976 10977 10977 10977 10978 10979 10980 10982 10983 10984 10985 10985 10985 10986 10986 10986 10986 10986 10985 10985 10985 10985 10984 10984 10983 10983 10982 10981 10980 10979 10978 10977 10975 10974 10972 10970 10968 10966 10964 10962 10961 10959 10956 10954 10952 10950 10948 10946 10944 10942 10939 10936 10934 10932 10929 10926 10924 10922 10919 10917 10914 10912 10909
11002 11000 10997 10996 10994 10992 10990 10989 10987 10984 10982 10980 10979 10979 10978 10977 10977 10977 10977 10978 10978 10979 10980 10980 10980 10981 10982 10983 10984 10985 10986 10987 10987 10987 10988 10988 10988 10988 10988 10987 10987 10987 10986 10986 10986 10986 10985 10984 10983 10982 10981 10981 10979 10978 10976 10975 10973 10971 10969 10967 10965 10964 10962 10959 10957 10955 10953 10951 10949 10947 10945 10943 10940 10938 10935 10933 10930 10928 10925 10923 10920 10918 10915 10913 10910
11005 11003 11000 10999 10997 10996 10994 10993 10990 10988 10987 10985 10984 10983 10983 10982 10981 10981 10981 10981 10982 10982 10983 10984 10984 10985 10986 10987 10987 10988 10989 10989 10989 10990 10990 10990 10990 10990 10989 10989 10989 10988 10988 10988 10988 10987 10986 10985 10984 10983 10983 10982 10980 10979 10977 10976 10974 10972 10970 10968 10966 10965 10963 10960 10958 10956 10954 10952 10950 10948 10946 10944 10941 10939 10937 10934 10932 10929 10927 10924 10922 10919 10917 10914 10912
11008 11006 11004 11003 11002 11000 10998 10997 10995 10993 10992 10991 10989 10988 10987 10986 10986 10985 10985 10985 10985 10986 10986 10987 10987 10988 10988 10989 10990 10990 10991 10991 10991 10992 10992 10992 10991 10991 10991 10991 10991 10990 10990 10990 10989 10989 10988 10987 10985 10984 10984 10983 10982 10980 10978 10977 10975 10973 10971 10969 10968 10966 10964 10961 10959 10957 10955 10953 10951 10949 10947 10945 10943 10940 10938 10936 10934 10931 10928 10926 10923 10920 10918 10915 10913
11010 11009 11007 11006 11005 11003 11002 11001 10999 10998 10997 10995 10993 10992 10991 10991 10990 10990 10989 10989 10989 10989 10989 10989 10989 10990 10990 10991 10991 10992 10993 10993 10993 10993 10993 10993 10993 10993 10993 10992 10992 10992 10991 10991 10991 10990 10989 10988 10987 10985 10985 10984 10983 10981 10980 10978 10976 10974 10972 10970 10969 10967 10965 10963 10960 10958 10956 10954 10952 10950 10948 10946 10944 10942 10940 10937 10935 10932 10929 10927 10924 10922 10919 10917 10914
11012 11011 11009 11008 11008 11006 11005 11004 11002 11001 11000 10998 10997 10996 10996 10995 10994 10993 10993 10992 10992 10992 10992 10992 10991 10992 10992 10993 10993 10994 10994 10994 10995 10994 10995 10995 10995 10994 10994 10994 10994 10993 10993 10993 10992 10991 10990 10989 10988 10987 10986 10985 10984 10982 10981 10979 10977 10975 10973 10972 10970 10968 10966 10964 10962 10959 10957 10955 10953 10951 10949 10948 10946 10944 10941 10939 10937 10934 10931 10928 10925 10923 10920 10918 10916
11014 11013 11012 11011 11010 11009 11008 11006 11004 11003 11002 11001 11000 11000 11000 10998 10997 10997 10996 10995 10995 10994 10994 10994 10994 10994 10994 10995 10995 10995 10995 10996 10996 10996 10996 10997 10996 10995 10995 10996 10995 10995 10994 10994 10993 10992 10991 10990 10989 10988 10987 10986 10985 10983 10981 10980 10978 10976 10975 10973 10971 10969 10967 10965 10963 10961 10958 10957 10954 10952 10950 10948 10947 10945 10943 10940 10938 10936 10932 10929 10927 10924 10922 10920 10918
11017 11016 11015 11014 11013 11011 11010 11008 11007 11006 11005 11004 11003 11003 11002 11001 11000 10999 10999 10998 10998 10997 10997 10997 10997 10997 10997 10997 10997 10997 10998 10998 10998 10998 10998 10998 10998 10996 10996 10997 10997 10996 10996 10995 10995 10994 10993 10992 10991 10989 10989 10988 10986 10984 10983 10981 10979 10977 10976 10974 10972 10970 10968 10966 10964 10962 10959 10957 10955 10953 10951 10949 10948 10946 10944 10942 10939 10937 10934 10931 10928 10925 10923 10921 10919
11019 11018 11017 11015 11014 11013 11011 11011 11010 11009 11008 11006 11006 11005 11004 11003 11002 11002 11001 11001 11000 11000 11000 11000 10999 10999 10999 10999 10999 10999 11000 11000 10999 10999 10999 10999 10998 10998 10998 10998 10998 10998 10997 10997 10996 10995 10994 10993 10992 10991 10990 10989 10987 10985 10984 10982 10980 10978 10977 10975 10974 10971 10969 10967 10965 10963 10961 10958 10956 10954 10952 10950 10949 10947 10945 10943 10941 10938 10936 10933 10930 10927 10924 10922 10920
11019 11018 11017 11016 11015 11014 11013 11013 11012 11011 11010 11009 11008 11007 11006 11005 11004 11004 11003 11003 11003 11003 11002 11002 11002 11002 11001 11001 11001 11001 11001 11001 11001 11001 11001 11000 10999 10999 10999 10999 10999 10999 10998 10998 10997 10996 10996 10994 10993 10992 10991 10990 10988 10986 10984 10983 10981 10980 10978 10977 10975 10972 10970 10968 10966 10964 10962 10960 10958 10955 10954 10952 10950 10948 10947 10945 10942 10940 10937 10935 10932 10928 10926 10923 10921
11019 11018 11018 11017 11017 11016 11015 11014 11014 11013 11012 11011 11010 11009 11008 11007 11006 11006 11006 11005 11005 11005 11005 11004 11004 11004 11004 11003 11003 11003 11003 11003 11003 11002 11002 11001 11000 11000 11000 11000 11000 11000 10999 10999 10998 10997 10997 10996 10995 10994 10993 10991 10989 10987 10985 10984 10982 10981 10979 10978 10976 10973 10971 10969 10967 10965 10963 10961 10959 10957 10955 10953 10952 10950 10948 10946 10944 10941 10939 10936 10934 10930 10927 10925 10923
11020 11020 11020 11019 11019 11018 11017 11016 11015 11015 11014 11013 11012 11011 11010 11009 11008 11008 11008 11008 11007 11007 11007 11006 11006 11006 11005 11005 11005 11005 11004 11004 11004 11004 11003 11002 11002 11001 11001 11001 11001 11001 11000 11000 10999 10998 10998 10997 10996 10994 10993 10992 10990 10988 10987 10985 10983 10982 10980 10979 10977 10974 10972 10971 10969 10967 10965 10963 10961 10959 10957 10955 10953 10951 10949 10947 10945 10943 10940 10938 10936 10933 10929 10927 10924
11023 11023 11022 11022 11021 11021 11020 11019 11018 11017 11016 11015 11014 11013 11012 11011 11010 11010 11010 11009 11009 11009 11009 11008 11008 11007 11007 11007 11006 11006 11006 11005 11005 11004 11004 11003 11002 11002 11002 11002 11002 11001 11001 11001 11000 10999 10999 10998 10996 10995 10994 10992 10991 10989 10988 10986 10984 10983 10981 10980 10978 10976 10974 10972 10970 10968 10966 10964 10962 10960 10958 10956 10955 10953 10950 10948 10946 10944 10942 10939 10937 10935 10931 10928 10926
11025 11025 11025 11025 11024 11023 11022 11021 11020 11019 11018 11016 11015 11014 11013 11012 11012 11011 11011 11011 11010 11010 11010 11010 11009 11009 11009 11008 11008 11007 11007 11006 11005 11005 11005 11004 11003 11003 11003 11002 11002 11002 11002 11001 11001 11000 10999 10998 10996 10995 10994 10993 10991 10990 10988 10987 10985 10984 10982 10980 10979 10977 10975 10973 10971 10969 10967 10965 10964 10962 10960 10958 10956 10954 10952 10950 10947 10945 10943 10941 10939 10937 10933 10930 10928
11027 11027 11026 11026 11026 11025 11024 11023 11022 11020 11019 11018 11017 11016 11015 11014 11013 11013 11012 11011 11011 11011 11011 11010 11010 11010 11009 11009 11008 11008 11007 11007 11006 11006 11005 11005 11004 11004 11003 11003 11003 11003 11002 11002 11001 11000 10999 10998 10997 10996 10995 10993 10992 10991 10989 10988 10986 10985 10983 10981 10980 10978 10976 10974 10973 10971 10969 10967 10965 10963 10961 10960 10958 10955 10953 10951 10949 10947 10945 10943 10941 10938 10935 10932 10930
11028 11028 11027 11027 11027 11026 11025 11024 11023 11022 11021 11019 11018 11017 11016 11015 11014 11014 11013 11012 11012 11012 11011 11011 11011 11010 11010 11009 11009 11008 11007 11007 11006 11006 11006 11005 11005 11005 11004 11004 11004 11003 11003 11002 11001 11000 10999 10998 10997 10996 10995 10994 10993 10992 10990 10989 10987 10986 10984 10982 10981 10979 10977 10976 10974 10972 10970 10969 10967 10965 10963 10961 10959 10957 10955 10953 10950 10948 10947 10945 10943 10940 10938 10935 10933
11029 11029 11028 11028 11028 11027 11026 11025 11024 11023 11022 11020 11019 11018 11017 11016 11016 11015 11014 11013 11012 11012 11012 11012 11012 11011 11010 11010 11009 11009 11008 11007 11007 11006 11006 11006 11006 11005 11005 11004 11004 11003 11003 11002 11001 11000 10999 10998 10997 10996 10995 10995 10994 10992 10991 10989 10988 10986 10985 10983 10982 10980 10979 10977 10975 10973 10972 10970 10968 10967 10965 10963 10961 10959 10957 10954 10952 10950 10949 10947 10945 10943 10940 10937 10935
11030 11029 11029 11028 11028 11027 11026 11026 11025 11024 11023 11021 11020 11019 11018 11018 11017 11016 11015 11014 11013 11013 11013 11012 11012 11012 11011 11011 11010 11009 11009 11008 11007 11007 11006 11006 11006 11005 11005 11004 11004 11003 11003 11002 11001 11000 10999 10998 10997 10996 10995 10994 10993 10992 10991 10990 10988 10987 10986 10984 10983 10981 10980 10978 10976 10975 10973 10971 10970 10968 10966 10964 10962 10960 10958 10956 10954 10952 10951 10950 10948 10945 10943 10940 10938
11030 11030 11029 11029 11028 11028 11027 11026 11025 11025 11024 11022 11021 11020 11019 11019 11018 11017 11016 11015 11014 11014 11013 11013 11013 11012 11011 11011 11010 11010 11009 11009 11008 11007 11007 11006 11006 11006 11005 11005 11004 11003 11003 11002 11001 11000 10999 10998 10997 10996 10995 10994 10993 10992 10991 10990 10989 10988 10987 10985 10984 10983 10981 10979 10978 10976 10974 10973 10971 10970 10968 10966 10964 10962 10960 10958 10956 10955 10953 10952 10950 10948 10945 10943 10941
11029 11029 11029 11029 11028 11028 11027 11027 11026 11025 11024 11023 11022 11021 11020 11019 11019 11018 11017 11016 11015 11014 11014 11013 11013 11012 11012 11011 11011 11010 11010 11009 11008 11008 11007 11007 11006 11006 11005 11005 11004 11003 11003 11002 11001 11000 10999 10998 10997 10996 10995 10994 10993 10993 10992 10991 10990 10989 10987 10986 10985 10983 10982 10981 10979 10977 10976 10974 10973 10972 10970 10968 10966 10964 10962 10960 10959 10957 10956 10954 10952 10950 10948 10946 10944
11029 11028 11028 11028 11028 11028 11027 11027 11026 11026 11025 11024 11023 11022 11021 11020 11019 11018 11017 11016 11016 11015 11014 11014 11013 11013 11012 11011 11011 11010 11010 11009 11009 11008 11008 11007 11006 11006 11005 11005 11004 11003 11002 11002 11001 11000 10999 10998 10997 10996 10996 10995 10994 10993 10992 10991 10990 10989 10988 10987 10986 10985 10983 10982 10980 10979 10977 10976 10975 10973 10972 10970 10968 10966 10964 10962 10961 10959 10958 10956 10954 10953 10951 10949 10947
11028 11028 11028 11028 11028 11028 11027 11027 11027 11026 11025 11025 11024 11023 11022 11021 11020 11019 11018 11017 11016 11015 11015 11014 11014 11013 11012 11011 11011 11010 11010 11009 11009 11008 11008 11007 11006 11006 11005 11005 11004 11003 11003 11002 11001 11000 10999 10998 10998 10997 10996 10995 10994 10994 10993 10992 10991 10990 10989 10988 10987 10986 10984 10983 10982 10980 10979 10978 10977 10975 10973 10972 10970 10968 10966 10965 10963 10961 10960 10958 10957 10955 10953 10951 10949
11028 11028 11028 11028 11027 11027 11027 11027 11027 11026 11026 11025 11024 11023 11023 11022 11021 11020 11019 11018 11017 11016 11015 11015 11014 11014 11012 11012 11011 11010 11010 11009 11009 11008 11008 11007 11007 11006 11006 11005 11004 11004 11003 11002 11001 11000 11000 10999 10998 10998 10997 10996 10995 10994 10993 10992 10991 10990 10990 10989 10988 10987 10986 10985 10983 10982 10981 10980 10979 10977 10975 10974 10972 10970 10969 10967 10966 10964 10963 10961 10959 10958 10956 10955 10953
11028 11028 11028 11027 11027 11027 11027 11027 11027 11026 11026 11025 11025 11024 11023 11023 11022 11021 11020 11019 11018 11017 11016 11016 11015 11014 11013 11013 11012 11011 11010 11009 11009 11008 11008 11007 11007 11007 11006 11005 11005 11004 11004 11003 11002 11001 11000 11000 10999 10998 10998 10997 10996 10995 10994 10993 10992 10992 10991 10990 10989 10989 10988 10987 10986 10985 10983 10982 10981 10979 10978 10976 10975 10974 10972 10971 10970 10969 10967 10966 10964 10962 10961 10959 10957
11028 11028 11028 11027 11027 11026 11026 11026 11027 11026 11026 11025 11025 11024 11024 11024 11023 11022 11021 11020 11019 11018 11017 11017 11016 11016 11015 11014 11013 11012 11011 11010 11009 11009 11008 11008 11008 11007 11007 11006 11006 11005 11004 11004 11003 11002 11001 11001 11000 10999 10999 10998 10997 10996 10995 10995 10994 10993 10993 10992 10991 10990 10990 10989 10988 10987 10986 10985 10984 10982 10981 10980 10979 10977 10977 10976 10974 10973 10972 10971 10969 10967 10966 10964 10962
11026 11027 11027 11026 11026 11026 11026 11025 11026 11026 11026 11025 11025 11024 11024 11024 11024 11023 11022 11021 11020 11019 11019 11018 11017 11017 11016 11016 11015 11014 11013 11012 11011 11010 11010 11009 11008 11008 11007 11007 11007 11006 11005 11005 11004 11003 11002 11002 11001 11000 11000 10999 10998 10997 10997 10996 10996 10995 10994 10994 10993 10992 10992 10991 10990 10990 10989 10988 10987 10986 10985 10984 10983 10982 10981 10980 10979 10978 10977 10975 10974 10973 10971 10969 10967
11024 11025 11025 11025 11025 11025 11025 11024 11024 11024 11025 11025 11025 11024 11024 11024 11024 11024 11023 11022 11021 11020 11020 11019 11018 11018 11017 11017 11016 11015 11014 11013 11012 11012 11011 11010 11010 11009 11009 11008 11008 11008 11007 11006 11005 11004 11004 11003 11002 11001 11001 11000 10999 10999 10998 10997 10997 10996 10996 10995 10995 10994 10994 10993 10993 10992 10992 10991 10990 10989 10988 10987 10986 10986 10984 10984 10983 10981 10980 10979 10978 10977 10975 10973 10971
11021 11022 11022 11022 11022 11022 11023 11023 11023 11023 11023 11024 11024 11024 11024 11023 11024 11024 11024 11023 11022 11021 11020 11020 11019 11019 11018 11018 11017 11016 11016 11015 11014 11013 11013 11012 11012 11011 11010 11010 11010 11009 11008 11008 11007 11006 11005 11004 11004 11003 11002 11001 11001 11000 10999 10999 10998 10998 10997 10997 10997 10996 10996 10996 10995 10995 10994 10993 10993 10992 10991 10990 10990 10989 10988 10987 10986 10985 10984 10983 10982 10981 10979 10978 10976
11019 11020 11020 11020 11020 11020 11020 11020 11021 11021 11022 11022 11023 11023 11023 11023 11023 11024 11024 11024 11023 11022 11022 11021 11020 11020 11019 11019 11018 11018 11017 11016 11016 11015 11015 11014 11013 11013 11012 11012 11012 11011 11010 11010 11009 11008 11007 11006 11006 11005 11004 11003 11002 11002 11001 11000 11000 11000 10999 10999 10998 10998 10998 10998 10997 10997 10996 10996 10995 10994 10994 10993 10992 10992 10991 10990 10989 10988 10987 10986 10985 10984 10983 10981 10980
11018 11019 11019 11019 11019 11018 11018 11018 11018 11019 11020 11021 11021 11022 11022 11022 11022 11023 11024 11024 11024 11023 11023 11022 11021 11021 11021 11020 11020 11019 11019 11018 11017 11017 11017 11016 11015 11015 11014 11013 11013 11013 11012 11011 11011 11010 11009 11008 11008 11007 11006 11005 11004 11003 11003 11002 11002 11002 11001 11001 11000 11000 11000 10999 10999 10999 10998 10998 10997 10997 10996 10996 10995 10994 10994 10993 10992 10991 10990 10989 10988 10987 10986 10985 10983
11017 11017 11018 11019 11019 11018 11016 11016 11016 11017 11018 11019 11020 11020 11021 11021 11022 11022 11023 11023 11024 11023 11023 11023 11022 11022 11021 11021 11021 11020 11020 11019 11019 11019 11018 11018 11017 11017 11016 11015 11015 11015 11014 11013 11013 11012 11011 11010 11010 11009 11009 11008 11007 11006 11005 11005 11004 11004 11003 11003 11002 11002 11002 11001 11001 11000 11000 11000 10999 10999 10999 10998 10997 10997 10996 10995 10994 10994 10993 10992 10991 10990 10989 10988 10986
11016 11016 11016 11017 11017 11017 11016 11015 11015 11015 11016 11018 11019 11019 11020 11020 11021 11021 11022 11023 11023 11023 11023 11023 11023 11022 11022 11021 11021 11021 11021 11020 11020 11020 11020 11019 11019 11018 11018 11017 11017 11016 11016 11015 11015 11014 11013 11013 11012 11012 11011 11010 11009 11008 11008 11007 11006 11006 11005 11005 11004 11004 11003 11003 11003 11002 11002 11001 11001 11001 11000 11000 10999 10999 10998 10997 10997 10996 10995 10994 10993 10993 10991 10990 10989
11014 11014 11014 11014 11014 11015 11015 11015 11015 11015 11015 11016 11017 11018 11019 11019 11020 11020 11021 11022 11022 11023 11023 11023 11023 11023 11022 11022 11021 11021 11021 11020 11020 11020 11020 11020 11020 11019 11019 11019 11018 11018 11018 11017 11016 11016 11015 11015 11014 11013 11013 11012 11011 11011 11010 11009 11008 11008 11007 11007 11006 11006 11005 11005 11004 11004 11003 11003 11003 11002 11002 11001 11001 11000 11000 10999 10998 10998 10997 10996 10996 10995 10994 10993 10992
11012 11012 11012 11011 11012 11012 11013 11013 11014 11014 11014 11015 11016 11017 11018 11019 11019 11020 11020 11021 11021 11022 11022 11023 11023 11023 11022 11022 11021 11021 11021 11021 11020 11020 11020 11020 11020 11020 11020 11020 11019 11019 11019 11018 11018 11017 11017 11016 11016 11015 11014 11014 11013 11012 11012 11011 11010 11010 11009 11009 11008 11008 11007 11006 11006 11005 11005 11004 11004 11003 11003 11002 11002 11001 11001 11000 11000 10999 10999 10998 10997 10996 10995 10994 10993
11010 11009 11009 11009 11010 11010 11010 11010 11011 11012 11013 11014 11015 11016 11017 11018 11019 11020 11020 11020 11021 11021 11022 11022 11023 11023 11022 11022 11021 11021 11020 11020 11020 11020 11020 11020 11019 11019 11019 11020 11020 11020 11020 11019 11019 11019 11018 11018 11017 11016 11016 11015 11014 11013 11013 11012 11012 11011 11011 11010 11009 11009 11008 11008 11007 11006 11006 11005 11005 11004 11004 11003 11003 11002 11002 11001 11001 11000 10999 10999 10998 10997 10997 10996 10995
11007 11007 11007 11007 11007 11007 11007 11007 11008 11009 11010 11012 11013 11014 11015 11017 11018 11019 11020 11020 11021 11021 11021 11021 11022 11022 11022 11022 11021 11021 11020 11020 11020 11019 11019 11019 11019 11019 11019 11019 11019 11019 11019 11019 11019 11019 11019 11019 11018 11017 11017 11016 11015 11015 11014 11013 11012 11012 11011 11011 11010 11010 11009 11008 11008 11007 11007 11006 11005 11005 11004 11004 11003 11003 11002 11002 11001 11000 11000 10999 10998 10998 10997 10996 10995
11004 11004 11004 11005 11005 11005 11005 11005 11005 11006 11008 11009 11010 11012 11013 11015 11017 11018 11019 11020 11020 11020 11021 11021 11021 11021 11021 11022 11021 11021 11020 11019 11019 11019 11018 11018 11018 11018 11018 11018 11018 11018 11018 11019 11019 11019 11019 11019 11018 11018 11018 11017 11016 11015 11014 11014 11013 11012 11011 11011 11010 11010 11009 11009 11008 11007 11007 11006 11006 11005 11004 11004 11003 11003 11002 11001 11001 11000 11000 10999 10998 10997 10997 10996 10995
11000 11001 11001 11002 11003 11003 11003 11003 11003 11004 11005 11007 11008 11009 11011 11013 11014 11016 11017 11018 11019 11019 11019 11019 11019 11019 11020 11020 11020 11020 11020 11019 11019 11018 11017 11017 11017 11017 11017 11016 11016 11017 11017 11017 11018 11018 11018 11018 11018 11018 11018 11017 11016 11015 11015 11014 11013 11012 11011 11011 11010 11010 11009 11008 11008 11007 11007 11006 11005 11005 11004 11004 11003 11002 11002 11001 11000 11000 10999 10999 10998 10997 10996 10996 10995
10996 10997 10998 10999 10999 11000 11000 11001 11001 11002 11003 11005 11006 11007 11009 11010 11012 11013 11014 11014 11015 11015 11016 11016 11017 11017 11017 11017 11018 11018 11019 11018 11018 11017 11016 11016 11015 11015 11015 11015 11015 11015 11015 11015 11015 11016 11016 11017 11017 11017 11017 11016 11016 11015 11014 11013 11013 11012 11011 11011 11010 11009 11008 11008 11007 11007 11006 11006 11005 11004 11003 11003 11002 11002 11001 11000 10999 10999 10998 10998 10997 10997 10996 10995 10994
10992 10993 10994 10995 10996 10997 10997 10998 10999 11000 11002 11003 11004 11005 11007 11008 11009 11010 11010 11011 11011 11011 11012 11012 11013 11014 11014 11014 11015 11015 11016 11016 11016 11016 11015 11014 11013 11013 11012 11012 11012 11012 11013 11013 11013 11013 11014 11015 11015 11015 11015 11015 11014 11014 11013 11012 11012 11011 11011 11010 11010 11009 11008 11007 11006 11005 11005 11005 11004 11003 11003 11002 11001 11001 11000 11000 10999 10998 10997 10997 10996 10996 10995 10994 10994
10987 10988 10990 10991 10992 10993 10994 10995 10996 10998 11001 11002 11003 11004 11005 11006 11006 11007 11006 11007 11007 11007 11008 11010 11010 11011 11011 11011 11012 11012 11013 11013 11014 11013 11013 11012 11011 11011 11010 11010 11010 11010 11010 11011 11010 11010 11011 11012 11013 11013 11013 11012 11012 11012 11011 11011 11011 11010 11010 11009 11009 11008 11007 11006 11005 11004 11003 11003 11003 11002 11001 11001 11000 11000 10999 10999 10998 10997 10996 10995 10994 10994 10994 10993 10993
10983 10984 10986 10987 10988 10989 10990 10991 10993 10995 10998 11001 11001 11002 11002 11003 11003 11004 11003 11003 11004 11004 11006 11007 11009 11010 11010 11010 11010 11010 11010 11011 11012 11012 11011 11010 11010 11010 11009 11008 11008 11008 11009 11009 11008 11008 11008 11009 11010 11010 11011 11010 11010 11010 11010 11009 11009 11009 11008 11008 11007 11006 11005 11004 11004 11003 11002 11001 11001 11001 11000 10999 10998 10998 10998 10998 10996 10995 10995 10994 10993 10992 10992 10992 10991
10978 10979 10981 10982 10984 10985 10986 10988 10989 10991 10994 10997 10998 10998 10998 10999 11000 11000 11000 11000 11001 11002 11004 11005 11007 11007 11008 11008 11008 11008 11008 11008 11009 11009 11009 11009 11008 11008 11009 11008 11007 11007 11008 11007 11006 11006 11006 11007 11007 11008 11009 11008 11008 11008 11008 11007 11007 11006 11006 11005 11005 11004 11003 11003 11002 11002 11001 11000 11000 11000 10999 10998 10997 10997 10997 10997 10996 10994 10993 10993 10992 10991 10991 10990 10990